OBJECT AC, 62403

Orbit data source: Space-Track

You're viewing an Uncataloged Satellite

Recently launched and/or uncataloged satellites may have evolving metadata. Metadata may include but not limited to: Owner, Maufacturer, Bus, Motor, and Mission.

OBJECT AC, 62403 is a satellite in LEO that was launched on Sat, 21 Dec 2024 UTC via an FALCON 9 launch vehicle from the Air Force Western Test Range (AFWTR). Unknown objects in Earth's orbit typically refer to objects detected orbiting the Earth but have not yet been identified or cataloged. These objects could be anything from previously untracked satellites, spent rocket stages, debris from satellite collisions, or even natural meteoroids temporarily captured by Earth's gravity.

Loading next visibility...
Identifier
62403, 2024-247AC
Orbit
LEO
Last TLE update
1 day ago
Origin
Flag of TBDONDO (TBD)
Manufacturer
ONDO Space
Mission
Operational Commercial Communications
Bus & Motor
CUBESAT 0.5U, Unknown motor
Mass
0.25 kg wet, 0.25 kg dry
Launch date (UTC)
2024-12-21 (5 months ago)
Launch vehicle
FALCON 9
Launch site
Air Force Western Test Range (AFWTR)
Object type
Unknown
Shape & HBR
Box, 0.05 m
Radar Cross Section
0.004 m², Small (<0.1 m²)

Expand to show TLE details & history

TLE from 1 day ago
0 OBJECT AC
1 62403U 24247AC  25128.28821920  .00011514  00000-0  48315-3 0  9990
2 62403  44.9893 336.4813 0006456 221.0747 138.9649 15.23597116 21111
Epoch: 2025-05-08T06:55Z
Definitive object data (Epoch: 2025-05-08T06:55:02.138Z)
Latitude
-0.00002°
Longitude
6.3615°
Altitude
498.347 km
Speed
7.615 km/s
True Right ascension
22h 25m 55s
True Declination
0° 00' 00"
Sunlit
Object was in daylight at TLE epoch
Visualization TLE readout
Latitude
-7.87251°
Longitude
-8.65412°
Altitude
498.5 km
Speed
7.615 km/s
Apparent Right ascension
19h 14m 13s
Apparent Declination
-63° 22' 33"
Sunlit
Object is in daylight
Visualization observer readout
Local Sidereal Time
22:30:30
Azimuth
201.175° SSW
Elevation
-20.393°
Doppler factor
1
Orbital elements
Apogee altitude
501.048 km
Perigee altitude
492.171 km
Semi-major axis
6,874.746 km
Eccentricity
0.0006456
Inclination
44.9893°
RAAN
336.4813°
Arg. of periapsis
221.0747°
True anomaly
139.01344°
Mean anomaly
138.9649°
Eccentric anomaly
138.98917°
Mean motion
3.80766 °/min
BSTAR
0.00048315
Orbital period
94.55 mins
Loading maneuver chart data...
Loading SW <> Apogee altitude chart data...
Loading historical data...
Loading historical data...
Loading historical data...
Loading historical data...
Loading historical data...
Loading historical data...
Loading historical data...

OBJECT AC Visibility forecast

Observer location: undefined°, undefined°

Span
Click to sort rows by Start time (UTC) header in descending order
Start Az.
Max El. time (UTC)
Max El. Az.
Max El.
End time (UTC)
End Az.
6 mins2025-05-09 16:08:22.930Z197.868° SSW2025-05-09 16:11:22.930Z140.271° SSE23.684°2025-05-09 16:14:22.930Z86.752° E
6 mins2025-05-09 17:47:22.930Z256.843° W2025-05-09 17:50:22.930Z14.913° NNE42.711°2025-05-09 17:53:22.930Z63.291° ENE
5 mins2025-05-09 19:27:22.930Z300.56° NW2025-05-09 19:29:22.930Z352.302° N31.304°2025-05-09 19:32:22.930Z62.343° ENE
6 mins2025-05-09 21:06:22.930Z302.336° NW2025-05-09 21:09:22.930Z42.855° NE38.272°2025-05-09 21:12:22.930Z94.183° ESE
5 mins2025-05-09 22:46:22.930Z262.969° W2025-05-09 22:48:22.930Z196.962° SSW31.165°2025-05-09 22:51:22.930Z144.957° SSE
|